Location: Hamburg
(53.5511°N, 9.9937°E)
Time: 16:35:53
(UTC+02:00)

ISS - Pass Details

Date: 19 March 2026
Orbit: 416 x 425 km, 51.6° (Epoch: 19 April)

Event Time Altitude Azimuth Distance (km) Brightness Sun altitude
Rises 21:26:02 0° 277° (W) 2,388 1.0 -24.9°
Reaches altitude 10° 21:28:12 10° 270° (W) 1,519 -0.3 -25.2°
Enters shadow 21:29:36 21° 259° (W) 1,009 -1.5 -25.3°
